• Em Portugal
  • Lista de países
  • Para 7 dias
  • Temperatura da água
  • Mapas de satélite
  • Mapa do tempo
  • Widgets de tempo
  • user-avatar
    Iniciar Sessão

    Previsão horária em Waczos

    Hoje, 21 Outubro, Domingo

    Tempo Temperatura Precipitação Vento Pressão Humidade
    00:00 +8°C° 0 mm 1 m/s 756 mmHg 94%
    01:00 +8°C° 0 mm 1 m/s 756 mmHg 95%
    02:00 +8°C° 0 mm 1 m/s 756 mmHg 95%
    03:00 +8°C° 0 mm 1 m/s 756 mmHg 95%
    04:00 +7°C° 0 mm 1 m/s 756 mmHg 95%
    05:00 +7°C° 0 mm 1 m/s 757 mmHg 95%
    06:00 +7°C° 0 mm 1 m/s 757 mmHg 95%
    07:00 +7°C° 0 mm 1 m/s 757 mmHg 95%
    08:00 +9°C° 0 mm 1 m/s 758 mmHg 89%
    09:00 +11°C° 0 mm 1 m/s 758 mmHg 82%
    10:00 +12°C° 0 mm 1 m/s 758 mmHg 75%
    11:00 +13°C° 0 mm 1 m/s 758 mmHg 70%
    12:00 +14°C° 0 mm 2 m/s 758 mmHg 65%
    13:00 +15°C° 0 mm 2 m/s 758 mmHg 60%
    14:00 +14°C° 0 mm 2 m/s 758 mmHg 62%
    15:00 +13°C° 0 mm 2 m/s 758 mmHg 64%
    16:00 +13°C° 0 mm 1 m/s 757 mmHg 67%
    17:00 +12°C° 0 mm 2 m/s 757 mmHg 71%
    18:00 +10°C° 0 mm 2 m/s 757 mmHg 75%
    19:00 +9°C° 0 mm 2 m/s 757 mmHg 80%
    20:00 +8°C° 0 mm 2 m/s 757 mmHg 81%
    21:00 +8°C° 0 mm 2 m/s 757 mmHg 82%
    22:00 +8°C° 0 mm 2 m/s 757 mmHg 83%
    23:00 +8°C° 0 mm 2 m/s 757 mmHg 84%

    Amanhã, 22 Outubro, Segunda-feira

    Tempo Temperatura Precipitação Vento Pressão Humidade
    00:00 +7°C° 0 mm 3 m/s 757 mmHg 84%
    01:00 +7°C° 0 mm 3 m/s 756 mmHg 85%
    02:00 +7°C° 0 mm 3 m/s 756 mmHg 85%
    03:00 +7°C° 0 mm 3 m/s 756 mmHg 86%
    04:00 +7°C° 0 mm 3 m/s 755 mmHg 87%
    05:00 +7°C° 0 mm 3 m/s 755 mmHg 87%
    06:00 +7°C° 0 mm 3 m/s 755 mmHg 87%
    07:00 +6°C° 0 mm 4 m/s 755 mmHg 88%
    08:00 +6°C° 0.1 mm 4 m/s 755 mmHg 86%
    09:00 +7°C° 0.1 mm 4 m/s 755 mmHg 84%
    10:00 +8°C° 0.1 mm 4 m/s 755 mmHg 82%
    11:00 +8°C° 0.3 mm 4 m/s 755 mmHg 84%
    12:00 +8°C° 0.3 mm 4 m/s 754 mmHg 86%
    13:00 +8°C° 0.3 mm 4 m/s 754 mmHg 88%
    14:00 +8°C° 0.2 mm 4 m/s 754 mmHg 84%
    15:00 +8°C° 0.2 mm 4 m/s 755 mmHg 80%
    16:00 +8°C° 0.2 mm 4 m/s 755 mmHg 76%
    17:00 +7°C° 0 mm 4 m/s 755 mmHg 77%
    18:00 +8°C° 0 mm 3 m/s 755 mmHg 78%
    19:00 +7°C° 0 mm 3 m/s 755 mmHg 79%
    20:00 +7°C° 0 mm 3 m/s 755 mmHg 79%
    21:00 +5°C° 0 mm 3 m/s 756 mmHg 79%
    22:00 +5°C° 0 mm 3 m/s 756 mmHg 79%
    23:00 +5°C° 0 mm 3 m/s 756 mmHg 80%

    Depois de amanhã, 23 Outubro, Terça-feira

    Tempo Temperatura Precipitação Vento Pressão Humidade
    00:00 +4°C° 0 mm 3 m/s 755 mmHg 82%
    01:00 +4°C° 0 mm 3 m/s 755 mmHg 84%
    02:00 +4°C° 0 mm 3 m/s 754 mmHg 83%
    03:00 +4°C° 0 mm 4 m/s 754 mmHg 83%
    04:00 +5°C° 0 mm 4 m/s 753 mmHg 82%
    05:00 +5°C° 0.2 mm 5 m/s 752 mmHg 82%
    06:00 +4°C° 0.2 mm 6 m/s 751 mmHg 81%
    07:00 +4°C° 0.2 mm 7 m/s 750 mmHg 80%
    08:00 +4°C° 0.3 mm 8 m/s 749 mmHg 80%
    09:00 +5°C° 0.3 mm 8 m/s 747 mmHg 80%
    10:00 +5°C° 0.3 mm 9 m/s 746 mmHg 79%
    11:00 +5°C° 0.8 mm 9 m/s 745 mmHg 80%
    12:00 +6°C° 0.8 mm 10 m/s 743 mmHg 81%
    13:00 +6°C° 0.8 mm 10 m/s 742 mmHg 82%
    14:00 +7°C° 2.2 mm 10 m/s 741 mmHg 83%
    15:00 +7°C° 2.2 mm 10 m/s 739 mmHg 84%
    16:00 +7°C° 2.2 mm 10 m/s 738 mmHg 85%
    17:00 +8°C° 2.5 mm 10 m/s 737 mmHg 85%
    18:00 +8°C° 2.5 mm 9 m/s 736 mmHg 84%
    19:00 +10°C° 2.5 mm 9 m/s 735 mmHg 83%
    20:00 +8°C° 0.5 mm 9 m/s 735 mmHg 80%
    21:00 +9°C° 0.5 mm 8 m/s 735 mmHg 76%
    22:00 +7°C° 0.5 mm 8 m/s 735 mmHg 72%
    23:00 +7°C° 0.2 mm 8 m/s 736 mmHg 72%

    24 Outubro, Quarta-feira

    Tempo Temperatura Precipitação Vento Pressão Humidade
    00:00 +6°C° 0.2 mm 8 m/s 736 mmHg 73%
    01:00 +6°C° 0.2 mm 8 m/s 736 mmHg 73%
    02:00 +5°C° 0.2 mm 7 m/s 737 mmHg 68%
    03:00 +4°C° 0.2 mm 7 m/s 738 mmHg 64%
    04:00 +4°C° 0.2 mm 7 m/s 738 mmHg 59%
    05:00 +3°C° 0 mm 7 m/s 739 mmHg 59%
    06:00 +3°C° 0 mm 6 m/s 740 mmHg 59%
    07:00 +2°C° 0 mm 6 m/s 740 mmHg 59%
    08:00 +3°C° 0 mm 7 m/s 741 mmHg 56%
    09:00 +4°C° 0 mm 8 m/s 741 mmHg 53%
    10:00 +5°C° 0 mm 9 m/s 742 mmHg 49%
    11:00 +5°C° 0 mm 9 m/s 742 mmHg 49%
    12:00 +5°C° 0 mm 9 m/s 743 mmHg 49%
    13:00 +6°C° 0 mm 9 m/s 743 mmHg 48%
    14:00 +5°C° 0 mm 8 m/s 743 mmHg 50%
    15:00 +5°C° 0 mm 7 m/s 744 mmHg 52%
    16:00 +5°C° 0 mm 7 m/s 744 mmHg 54%
    17:00 +4°C° 0 mm 6 m/s 744 mmHg 56%
    18:00 +4°C° 0 mm 6 m/s 745 mmHg 59%
    19:00 +3°C° 0 mm 6 m/s 745 mmHg 61%
    20:00 +3°C° 0 mm 5 m/s 746 mmHg 62%
    21:00 +3°C° 0 mm 5 m/s 746 mmHg 63%
    22:00 +3°C° 0 mm 5 m/s 746 mmHg 64%
    23:00 +4°C° 0 mm 4 m/s 746 mmHg 65%

    25 Outubro, Quinta-feira

    Tempo Temperatura Precipitação Vento Pressão Humidade
    00:00 +3°C° 0 mm 4 m/s 746 mmHg 65%
    01:00 +3°C° 0 mm 4 m/s 746 mmHg 66%
    02:00 +3°C° 0 mm 4 m/s 746 mmHg 66%
    03:00 +3°C° 0 mm 4 m/s 746 mmHg 66%
    04:00 +3°C° 0 mm 4 m/s 746 mmHg 66%
    05:00 +3°C° 0.1 mm 4 m/s 745 mmHg 72%
    06:00 +4°C° 0.1 mm 4 m/s 745 mmHg 77%
    07:00 +4°C° 0.1 mm 4 m/s 744 mmHg 82%
    08:00 +6°C° 0.3 mm 5 m/s 743 mmHg 84%
    09:00 +7°C° 0.3 mm 6 m/s 743 mmHg 85%
    10:00 +8°C° 0.3 mm 6 m/s 742 mmHg 87%
    11:00 +9°C° 0.1 mm 7 m/s 741 mmHg 84%
    12:00 +9°C° 0.1 mm 8 m/s 741 mmHg 81%
    13:00 +9°C° 0.1 mm 8 m/s 740 mmHg 78%
    14:00 +9°C° 0.2 mm 8 m/s 740 mmHg 78%
    15:00 +10°C° 0.2 mm 9 m/s 740 mmHg 77%
    16:00 +10°C° 0.2 mm 9 m/s 739 mmHg 76%
    17:00 +10°C° 0.1 mm 9 m/s 739 mmHg 75%
    18:00 +8°C° 0.1 mm 9 m/s 739 mmHg 74%
    19:00 +8°C° 0.1 mm 9 m/s 739 mmHg 73%
    20:00 +9°C° 0 mm 8 m/s 740 mmHg 72%
    21:00 +8°C° 0 mm 7 m/s 740 mmHg 71%
    22:00 +7°C° 0 mm 6 m/s 740 mmHg 69%
    23:00 +7°C° 0 mm 6 m/s 740 mmHg 71%

    26 Outubro, Sexta-feira

    Tempo Temperatura Precipitação Vento Pressão Humidade
    00:00 +6°C° 0 mm 5 m/s 740 mmHg 72%
    01:00 +6°C° 0 mm 4 m/s 741 mmHg 73%
    02:00 +6°C° 0 mm 4 m/s 741 mmHg 75%
    03:00 +6°C° 0 mm 4 m/s 741 mmHg 76%
    04:00 +6°C° 0 mm 4 m/s 741 mmHg 78%
    05:00 +5°C° 0 mm 4 m/s 741 mmHg 79%
    06:00 +5°C° 0 mm 3 m/s 741 mmHg 81%
    07:00 +5°C° 0 mm 3 m/s 741 mmHg 82%
    08:00 +6°C° 0 mm 4 m/s 741 mmHg 78%
    09:00 +7°C° 0 mm 4 m/s 741 mmHg 74%
    10:00 +10°C° 0 mm 4 m/s 741 mmHg 70%
    11:00 +8°C° 0.4 mm 4 m/s 741 mmHg 73%
    12:00 +8°C° 0.4 mm 4 m/s 740 mmHg 77%
    13:00 +9°C° 0.4 mm 3 m/s 740 mmHg 81%
    14:00 +8°C° 0.9 mm 4 m/s 740 mmHg 83%
    15:00 +8°C° 0.9 mm 4 m/s 739 mmHg 84%
    16:00 +8°C° 0.9 mm 5 m/s 739 mmHg 85%
    17:00 +8°C° 0.1 mm 5 m/s 738 mmHg 85%
    18:00 +7°C° 0.1 mm 5 m/s 738 mmHg 85%
    19:00 +7°C° 0.1 mm 5 m/s 738 mmHg 84%
    20:00 +7°C° 0.1 mm 5 m/s 737 mmHg 85%
    21:00 +7°C° 0.1 mm 5 m/s 737 mmHg 86%
    22:00 +7°C° 0.1 mm 5 m/s 736 mmHg 86%
    23:00 +7°C° 0.1 mm 5 m/s 736 mmHg 87%
    Mostrar mais